Tracking 19709 objects as of 18-Jun-2019
HD Live streaming from Space Station
objects crossing your sky now

FLOCK 3K 5

Track FLOCK 3K 5 now!
10-day predictions
FLOCK 3K 5 is classified as:


NORAD ID: 43899
Int'l Code: 2018-111Z
Perigee: 484.4 km
Apogee: 515.4 km
Inclination: 97.3 °
Period: 94.5 minutes
Semi major axis: 6870 km
RCS: Unknown
Launch date: December 27, 2018
Source: United States (US)
Launch site: VOSTOCHNY COSMODROME (VOSTO)
aabbcc
Your satellite tracking list
Your tracking list is empty




NASA's NSSDC Master Catalog

Two Line Element Set (TLE):
1 43899U 18111Z   19168.71015601  .00000700  00000-0  31308-4 0  9997
2 43899  97.2907  73.9341 0022584   1.0795 359.0487 15.24339127 26291
Source of the keplerian elements: AFSPC